This demonstration page uses our WeatherBlox Daily Observations layout. Learn more.

Left ArrowRight Arrow

Hourly Observations for May 11, 2021

Temp ( °F °C ) Dew Point ( °F °C ) Humidity (%) Winds ( mph kmh ) Pressure ( in mb ) Visibility ( mi km ) Precip ( " mm )
12:53 am 00:53 Clear 41 5 34 1.1 76 76 N N/A 30.21 1023 10 16 N/A
1:53 am 01:53 Clear 42 5.6 31 -0.6 65 65 N N/A 30.21 1023 10 16 N/A
2:53 am 02:53 Clear 39 3.9 32 undefined 76 76 ENE 6 9 30.19 1022 10 16 N/A
3:53 am 03:53 Clear 37 2.8 32 undefined 82 82 ENE 8 13 30.19 1022 10 16 N/A
4:53 am 04:53 Clear 35 1.7 31 -0.6 85 85 ENE 5 7 30.19 1022 10 16 N/A
5:53 am 05:53 Mostly Cloudy 36 2.2 31 -0.6 82 82 E 8 13 30.18 1022 10 16 N/A
6:53 am 06:53 Sunny 37 2.8 31 -0.6 79 79 NE 5 7 30.20 1023 10 16 N/A
7:53 am 07:53 Cloudy 40 4.4 34 1.1 79 79 N N/A 30.21 1023 10 16 N/A
8:53 am 08:53 Cloudy 43 6.1 35 1.7 74 74 N N/A 30.22 1023 10 16 N/A
9:53 am 09:53 Cloudy 48 8.9 38 3.3 68 68 E 3 6 30.21 1023 10 16 N/A
10:53 am 10:53 Sunny 54 12.2 37 2.8 53 53 E 5 7 30.19 1023 10 16 N/A
11:53 am 11:53 Sunny 58 14.4 33 0.6 39 39 VRB 3 6 30.18 1022 10 16 N/A
12:53 pm 12:53 Partly Cloudy 61 16.1 33 0.6 35 35 VRB 3 6 30.16 1021 10 16 N/A
1:53 pm 13:53 Cloudy 59 15 33 0.6 38 38 undefined N/A 30.15 1021 10 16 N/A
2:53 pm 14:53 Cloudy 60 15.6 31 -0.6 33 33 VRB 3 6 30.15 1021 10 16 N/A
3:53 pm 15:53 Mostly Sunny 63 17.2 31 -0.6 30 30 undefined N/A 30.13 1020 10 16 N/A
4:53 pm 16:53 Mostly Sunny 63 17.2 30 -1.1 29 29 ENE 7 11 30.13 1020 10 16 N/A
5:53 pm 17:53 Mostly Cloudy 62 16.7 30 -1.1 30 30 N N/A 30.12 1020 10 16 N/A
6:53 pm 18:53 Partly Cloudy 61 16.1 30 -1.1 31 31 N N/A 30.12 1020 10 16 N/A
7:53 pm 19:53 Partly Cloudy with Light Rain 55 12.8 36 2.2 49 49 SW 16 26 30.15 1021 10 16 0.00 0.00
8:53 pm 20:53 Mostly Cloudy with Light Rain 55 12.8 35 1.7 47 47 NW 14 22 30.16 1021 10 16 0.00 0.00
9:03 pm 21:03 Partly Cloudy with Light Rain 53 11.7 37 2.8 55 55 NW 10 17 30.12 1020 10 16 0.00 0.00
9:53 pm 21:53 Mostly Cloudy with Light Rain 51 10.6 37 2.8 59 59 NNW 8 13 30.18 1022 10 16 0.00 0.00
10:53 pm 22:53 Cloudy with Light Rain 49 9.4 38 3.3 66 66 NW 8 13 30.16 1021 10 16 0.00 0.00
11:53 pm 23:53 Partly Cloudy with Light Rain 45 7.2 38 3.3 77 77 SW 9 15 30.17 1022 10 16 0.00 0.00

Powered by AerisWeather